[[{"header":{"parameterUnit":"m.s-1","parameterCategory":2,"la1":30.2991,"la2":30.254,"lo1":-89.0895,"lo2":-89.0444,"dy":0.0017,"dx":0.0017,"nx":28,"ny":28,"refTime":"2025-11-10T03:00:00:Z","depth":"0","parameterNumber":2,"parameterNumberName":"U-component_of_CURRENTS"},"data":[0,0,0,0,0,0,0,0,0,0,0,0,0,0,0,0,0,0,0,0,0,0,0,0,0,0,0,0,0,0,0,0,0,0,0,0,0,0,0,0,0,0,0,0,0,0,0,0,0,0,0,0,0,0,0,0,0,0,0.3799,0.38,0,0.3865,0.3865,0.3865,0.3911,0.3912,0.3913,0.3914,0.3846,0.3843,0.384,0,0,0,0,0,0,0,0,0,0,0,0,0,0.364,0.3642,0.3799,0.3801,0.3802,0.3865,0.3865,0.3865,0.3911,0.3912,0.3914,0.3915,0.3847,0.3843,0.384,0,0,0,0,0,0,0,0,0,0,0,0,0,0.3699,0.3643,0.3799,0.3839,0.3844,0.3865,0.3865,0.3865,0.391,0.3912,0.3914,0.3916,0.3848,0.3843,0.3839,0.3775,0,0,0.3826,0.3824,0,0,0,0,0,0,0,0,0.3695,0.3703,0.3832,0.3837,0.3843,0.389,0.3785,0.3832,0.391,0.3875,0.3914,0.3917,0.3853,0.3848,0.3845,0.3772,0.3769,0.3825,0.3822,0.3821,0.3819,0,0,0,0,0,0,0,0.3691,0.37,0.3815,0.3834,0.384,0.3831,0.3841,0.3793,0.3843,0.3878,0.3884,0.3906,0.3854,0.3849,0.3843,0.3768,0.3825,0.3821,0.3819,0.3817,0.3728,0.3728,0,0,0,0,0,0,0.3704,0.3697,0.3814,0.3818,0.3783,0.3833,0.3844,0.3865,0.3847,0.385,0.3905,0.3908,0.3856,0.3849,0.3841,0.3837,0.3821,0.3816,0.3814,0.3727,0.3728,0.3728,0,0,0,0,0,0,0.37,0.3714,0.3811,0.3766,0.378,0.3835,0.3858,0.3866,0.3873,0.387,0.3869,0.3908,0.3857,0.3847,0.3827,0.3831,0.3814,0.381,0.3727,0.3727,0.3728,0.3781,0,0,0,0,0,0,0.3695,0.3712,0.3708,0.3768,0.3783,0.383,0.3858,0.3866,0.3888,0.3893,0.3871,0.3867,0.3858,0.3834,0.3823,0.3825,0.3807,0.3727,0.3727,0.3728,0.3778,0.3783,0.3786,0,0,0,0,0,0.3689,0.3685,0.3707,0.3721,0.3784,0.3831,0.3836,0.3875,0.3887,0.3887,0.3888,0.3868,0.383,0.383,0.3817,0.3818,0.3726,0.3727,0.3728,0.3777,0.3782,0.3786,0,0,0,0,0,0,0.3601,0.3693,0.3717,0.3737,0.3786,0.3843,0.3841,0.3871,0.387,0.3868,0.3862,0.3857,0.3849,0.3817,0.3818,0.3796,0.3777,0.3775,0.3819,0.3823,0.3827,0.3827,0.3803,0,0,0,0,0,0.3585,0.3614,0.3693,0.3706,0.3729,0.3781,0.3797,0.3832,0.3855,0.3857,0.3854,0.3841,0.3835,0.3819,0.3805,0.377,0.3762,0.3765,0.3769,0.3773,0.3765,0.3777,0.3781,0.373,0.373,0.373,0,0,0.3558,0.3608,0.3625,0.369,0.3723,0.376,0.3792,0.3824,0.3854,0.3842,0.3854,0.3852,0.3832,0.3825,0.3815,0.3799,0.3785,0.3774,0.3777,0.3767,0.3778,0.3783,0.3787,0.373,0.373,0.373,0,0,0.3532,0.356,0.3584,0.363,0.3696,0.3728,0.3741,0.3803,0.3826,0.3843,0.3854,0.3854,0.3832,0.3832,0.3826,0.3829,0.3814,0.3826,0.3832,0.3844,0.3849,0.3853,0.3859,0.3863,0.3818,0.3818,0.3818,0,0.3501,0.3536,0.3592,0.3633,0.366,0.3717,0.3742,0.3777,0.3826,0.3831,0.3853,0.3852,0.3838,0.3833,0.3855,0.3837,0.3845,0.3819,0.3851,0.3854,0.3858,0.3863,0.3867,0.382,0.382,0.382,0.382,0,0.3509,0.3533,0.3546,0.362,0.365,0.3675,0.3748,0.3769,0.3799,0.3834,0.3851,0.3858,0.3853,0.386,0.3862,0.3872,0.3873,0.3866,0.3843,0.3866,0.387,0.3873,0.3824,0.3823,0.3823,0.3822,0,0,0.346,0.3537,0.3543,0.3565,0.3642,0.3669,0.3708,0.3748,0.3778,0.3818,0.3842,0.3855,0.3865,0.3859,0.3865,0.3881,0.3921,0.3888,0.3888,0.39,0.3954,0.3884,0.3881,0.3933,0.3933,0.3934,0.3952,0,0.3447,0.3494,0.3539,0.357,0.3592,0.3649,0.3687,0.3734,0.3777,0.3817,0.3832,0.3862,0.3865,0.388,0.3894,0.3924,0.393,0.3916,0.3923,0.3922,0.3863,0.3882,0.3738,0.3737,0.3955,0.3955,0.3956,0,0.3443,0.3471,0.3492,0.3544,0.356,0.3586,0.3635,0.3678,0.3744,0.3784,0.3809,0.385,0.3876,0.3888,0.3927,0.3925,0.3935,0.3956,0.3957,0.387,0.3857,0.3745,0.3733,0.3655,0.396,0.396,0.3959,0,0.3379,0.3434,0.3433,0.3459,0.3534,0.3541,0.3571,0.3646,0.368,0.3757,0.379,0.3841,0.3851,0.3901,0.3946,0.3948,0.3995,0.3994,0.393,0.3925,0.3789,0.377,0.37,0.4003,0.4003,0.4003,0.4003,0,0.3352,0.336,0.3399,0.3413,0.3419,0.3485,0.351,0.3565,0.3632,0.3656,0.3752,0.3778,0.3858,0.3901,0.3952,0.3948,0.3989,0.3928,0.3923,0.3803,0.3786,0.3699,0.368,0.4003,0.4003,0.4003,0.4003,0,0.3309,0.3332,0.3342,0.3387,0.3393,0.3401,0.3459,0.3485,0.3561,0.3595,0.3619,0.3713,0.3768,0.3853,0.392,0.3915,0.3848,0.3937,0.3789,0.3765,0.3615,0.3604,0.3404,0.3304,0.3867,0.3865,0.3864,0,0.3287,0.3285,0.3312,0.3305,0.3322,0.3338,0.3353,0.3432,0.3456,0.3545,0.3544,0.3617,0.3646,0.373,0.3769,0.383,0.375,0.3706,0.3667,0.3578,0.3564,0.3452,0.3376,0.3517,0.3513,0.3509,0.3507,0,0.3242,0.3253,0.327,0.325,0.3245,0.3246,0.3261,0.3267,0.3344,0.3379,0.3396,0.343,0.3508,0.3493,0.3573,0.36,0.353,0.3635,0.3578,0.3304,0.3141,0.3052,0.3543,0.3476,0.3479,0.3482,0.3483,0.3484,0.3198,0.3196,0.3195,0.318,0.3164,0.3111,0.3062,0.309,0.3083,0.3074,0.3192,0.3177,0.3267,0.3354,0.336,0.3287,0.3295,0.3208,0.3212,0.3115,0.2968,0.3389,0.3295,0.3297,0.3298,0.33,0.3301,0,0.31,0.3115,0.3111,0.3056,0.2985,0.3006,0.2962,0.2884,0.2809,0.2875,0.2874,0.2904,0.2917,0.2994,0.3009,0.2905,0.279,0.2829,0.265,0.2605,0.3011,0.2948,0.2729,0.2729,0.2729,0.2729,0.273,0.273,0.3048,0.3007,0.3013,0.2868,0.2819,0.2647,0.258,0.2505,0.2504,0.2435,0.2427,0.2501,0.2685,0.2788,0.271,0.264,0.2453,0.2325,0.2342,0.2664,0.27,0.2734,0.2668,0.2395,0.2394,0.1814,0.181,0.1806]},{"header":{"parameterUnit":"m.s-1","parameterCategory":2,"la1":30.2991,"la2":30.254,"lo1":-89.0895,"lo2":-89.0444,"dy":0.0017,"dx":0.0017,"nx":28,"ny":28,"refTime":"2025-11-10T03:00:00:Z","depth":"0","parameterNumber":3,"parameterNumberName":"V-component_of_CURRENTS"},"data":[0,0,0,0,0,0,0,0,0,0,0,0,0,0,0,0,0,0,0,0,0,0,0,0,0,0,0,0,0,0,0,0,0,0,0,0,0,0,0,0,0,0,0,0,0,0,0,0,0,0,0,0,0,0,0,0,0,0,-0.0614,-0.0615,0,-0.0636,-0.0636,-0.0636,-0.0672,-0.0673,-0.0674,-0.0675,-0.0643,-0.0642,-0.064,0,0,0,0,0,0,0,0,0,0,0,0,0,-0.0527,-0.0528,-0.0614,-0.0615,-0.0616,-0.0636,-0.0636,-0.0636,-0.0672,-0.0673,-0.0674,-0.0676,-0.0644,-0.0642,-0.064,0,0,0,0,0,0,0,0,0,0,0,0,0,-0.0555,-0.0529,-0.0614,-0.0639,-0.0641,-0.0636,-0.0636,-0.0636,-0.0672,-0.0673,-0.0675,-0.0676,-0.0645,-0.0642,-0.0639,-0.0593,0,0,-0.0631,-0.063,0,0,0,0,0,0,0,0,-0.0553,-0.0558,-0.0634,-0.0637,-0.064,-0.0656,-0.0594,-0.0621,-0.0671,-0.0656,-0.0675,-0.0677,-0.0644,-0.0641,-0.0638,-0.0592,-0.059,-0.0631,-0.0629,-0.0628,-0.0628,0,0,0,0,0,0,0,-0.0552,-0.0557,-0.0619,-0.0635,-0.0638,-0.0622,-0.0628,-0.0599,-0.0638,-0.0658,-0.0661,-0.0669,-0.0645,-0.064,-0.0637,-0.059,-0.0631,-0.0629,-0.0627,-0.0626,-0.051,-0.0509,0,0,0,0,0,0,-0.0559,-0.0555,-0.0619,-0.0621,-0.0604,-0.0623,-0.063,-0.0647,-0.0639,-0.0641,-0.0668,-0.0671,-0.0644,-0.064,-0.0636,-0.056,-0.0628,-0.0626,-0.0624,-0.0511,-0.051,-0.0508,0,0,0,0,0,0,-0.0557,-0.0565,-0.0618,-0.059,-0.0597,-0.0624,-0.0642,-0.0646,-0.0646,-0.0648,-0.0649,-0.0664,-0.0645,-0.064,-0.0612,-0.056,-0.0625,-0.0622,-0.0513,-0.0511,-0.0509,-0.0422,0,0,0,0,0,0,-0.0554,-0.0564,-0.0563,-0.0591,-0.0599,-0.0604,-0.0641,-0.0646,-0.065,-0.0654,-0.0645,-0.0644,-0.0646,-0.0616,-0.0609,-0.0558,-0.062,-0.0515,-0.0512,-0.051,-0.0426,-0.0417,-0.0408,0,0,0,0,0,-0.0551,-0.0538,-0.0563,-0.057,-0.0602,-0.0603,-0.0603,-0.0625,-0.0648,-0.0633,-0.0638,-0.0644,-0.0594,-0.0613,-0.0605,-0.0552,-0.0516,-0.0513,-0.051,-0.0431,-0.0419,-0.0409,0,0,0,0,0,0,-0.0476,-0.0542,-0.0569,-0.0572,-0.0586,-0.061,-0.0593,-0.0619,-0.0611,-0.0612,-0.0625,-0.0622,-0.0578,-0.058,-0.0601,-0.0513,-0.0555,-0.055,-0.0497,-0.0486,-0.0477,-0.0429,-0.0618,0,0,0,0,0,-0.0467,-0.0487,-0.0532,-0.0528,-0.0535,-0.0565,-0.0566,-0.0584,-0.0591,-0.059,-0.0593,-0.0583,-0.0555,-0.0537,-0.052,-0.0465,-0.0456,-0.0428,-0.0419,-0.0411,-0.0368,-0.031,-0.0291,-0.0497,-0.0497,-0.0497,0,0,-0.0434,-0.0473,-0.0481,-0.0515,-0.0527,-0.0499,-0.0567,-0.056,-0.0528,-0.0583,-0.0535,-0.0552,-0.0538,-0.0484,-0.0463,-0.0479,-0.0357,-0.0407,-0.04,-0.036,-0.0304,-0.0284,-0.0266,-0.0495,-0.0495,-0.0496,0,0,-0.0361,-0.0414,-0.0398,-0.0409,-0.0433,-0.0446,-0.0445,-0.0471,-0.0474,-0.045,-0.0472,-0.0454,-0.0432,-0.0397,-0.0378,-0.0304,-0.0317,-0.0313,-0.0214,-0.0159,-0.0141,-0.0124,-0.0126,-0.011,-0.0301,-0.03,-0.03,0,-0.0313,-0.0306,-0.0383,-0.0359,-0.0344,-0.0416,-0.0361,-0.0368,-0.0382,-0.0352,-0.0423,-0.0356,-0.0374,-0.0258,-0.0258,-0.0275,-0.0274,-0.0257,-0.0144,-0.0128,-0.0112,-0.0117,-0.0101,-0.0296,-0.0296,-0.0297,-0.0297,0,-0.0227,-0.0213,-0.0195,-0.0197,-0.0189,-0.0156,-0.0185,-0.0171,-0.0203,-0.0207,-0.0144,-0.018,-0.0132,-0.0148,-0.0189,-0.0074,-0.0122,-0.0146,-0.0167,-0.0085,-0.0098,-0.0083,-0.0289,-0.0291,-0.0292,-0.0293,0,0,-0.0125,-0.0133,-0.0122,-0.0087,-0.01,-0.0076,-0.0021,0.0028,0.0094,0.0049,0.0144,0.0135,0.0094,0.0112,0.0068,0.0096,0.0153,0.0015,0.0015,0.0022,0.0238,0.0152,0.016,0.0144,0.0148,0.0151,0.0171,0,-0.0018,0.0062,0.003,0.0139,0.0187,0.015,0.0222,0.0249,0.0243,0.0306,0.0277,0.0333,0.0202,0.0217,0.0227,0.018,0.0205,0.0148,0.0153,0.0153,0.0076,0.018,0.0148,0.016,0.0186,0.0188,0.019,0,0.0089,0.0128,0.0237,0.0316,0.0339,0.0388,0.0491,0.0541,0.0598,0.0593,0.0623,0.0583,0.0617,0.0481,0.0472,0.0435,0.0354,0.0299,0.0298,0.0214,0.01,0.0091,0.0187,0.0047,0.0213,0.0211,0.021,0,0.02,0.0286,0.0379,0.0398,0.0467,0.0525,0.0573,0.0636,0.071,0.0775,0.0825,0.0841,0.084,0.078,0.0605,0.0556,0.0576,0.0502,0.0362,0.0351,0.0328,0.031,0.0309,0.0536,0.0536,0.0536,0.0536,0,0.0323,0.0405,0.0433,0.0483,0.0629,0.063,0.0785,0.0825,0.0915,0.1024,0.0972,0.1044,0.0911,0.0875,0.0719,0.0581,0.0669,0.042,0.0382,0.0348,0.0332,0.021,0.0121,0.0536,0.0536,0.0536,0.0536,0,0.0426,0.0441,0.0554,0.0638,0.0673,0.077,0.0896,0.1003,0.106,0.1197,0.1227,0.122,0.1151,0.1006,0.0895,0.0722,0.0516,0.0539,0.047,0.0424,0.0141,0.0057,0.0021,-0.0043,0.0411,0.041,0.0409,0,0.0486,0.0547,0.0654,0.0721,0.0756,0.0885,0.0981,0.1066,0.1166,0.1295,0.137,0.1355,0.1331,0.1127,0.0854,0.0625,0.0481,0.0435,0.0348,0.0163,0.0043,-0.0025,-0.0081,0.033,0.0328,0.0326,0.0325,0,0.0609,0.063,0.071,0.0831,0.0928,0.1057,0.1181,0.1281,0.1382,0.1484,0.1572,0.1573,0.136,0.1102,0.0778,0.0607,0.0319,0.0394,0.0263,0.0048,-0.0077,-0.0171,0.0228,0.0312,0.0313,0.0314,0.0315,0.0315,0.0692,0.0756,0.0831,0.0947,0.1061,0.1179,0.1276,0.1398,0.1543,0.1664,0.1677,0.1679,0.1331,0.0875,0.0632,0.0181,0.0192,0.003,-0.004,-0.0078,-0.0176,0.016,0.0157,0.0157,0.0158,0.0158,0.0158,0,0.0775,0.0826,0.0942,0.1058,0.1168,0.1211,0.1376,0.1457,0.1584,0.1708,0.1758,0.1587,0.1151,0.0743,0.0135,-0.0184,-0.0286,-0.0342,-0.0419,-0.0442,-0.0078,-0.012,-0.0254,-0.0254,-0.0254,-0.0254,-0.0253,-0.0253,0.0822,0.091,0.0942,0.1101,0.1186,0.1302,0.1377,0.1497,0.1604,0.1708,0.172,0.1708,0.1397,0.0335,-0.036,-0.0511,-0.0715,-0.0793,-0.0864,-0.0615,-0.0584,-0.0556,-0.0613,-0.0848,-0.0849,-0.1195,-0.1198,-0.1201]}],[{"header":{"parameterUnit":"m.s-1","parameterCategory":2,"la1":30.2991,"la2":30.254,"lo1":-89.0895,"lo2":-89.0444,"dy":0.0017,"dx":0.0017,"nx":28,"ny":28,"refTime":"2025-11-10T03:00:00:Z","depth":"2","parameterNumber":2,"parameterNumberName":"U-component_of_CURRENTS"},"data":[0,0,0,0,0,0,0,0,0,0,0,0,0,0,0,0,0,0,0,0,0,0,0,0,0,0,0,0,0,0,0,0,0,0,0,0,0,0,0,0,0,0,0,0,0,0,0,0,0,0,0,0,0,0,0,0,0,0,0.2489,0.2489,0,0.249,0.249,0.249,0.2507,0.2508,0.2509,0.2509,0.25,0.2499,0.2498,0,0,0,0,0,0,0,0,0,0,0,0,0,0.2457,0.2458,0.2489,0.2489,0.249,0.249,0.249,0.249,0.2507,0.2508,0.2509,0.251,0.25,0.2499,0.2498,0,0,0,0,0,0,0,0,0,0,0,0,0,0.2464,0.2458,0.2489,0.25,0.2501,0.249,0.249,0.2489,0.2507,0.2508,0.2509,0.251,0.25,0.2499,0.2498,0.2471,0,0,0.2494,0.2493,0,0,0,0,0,0,0,0,0.2464,0.2465,0.2498,0.2499,0.25,0.2501,0.2475,0.2483,0.2507,0.2503,0.2509,0.251,0.25,0.2499,0.2494,0.247,0.247,0.2494,0.2493,0.2493,0.2492,0,0,0,0,0,0,0,0.2463,0.2465,0.2488,0.2498,0.25,0.2489,0.2491,0.2476,0.2494,0.2503,0.2505,0.2508,0.25,0.2495,0.2494,0.247,0.2494,0.2493,0.2492,0.2492,0.2569,0.2572,0,0,0,0,0,0,0.2469,0.2465,0.2488,0.2488,0.2486,0.2489,0.2492,0.2498,0.2495,0.2496,0.2507,0.2509,0.2497,0.2495,0.2494,0.2543,0.2493,0.2491,0.2491,0.2566,0.257,0.2573,0,0,0,0,0,0,0.2468,0.2471,0.2488,0.2477,0.2479,0.2489,0.2496,0.2498,0.2522,0.2498,0.2499,0.2534,0.2498,0.2496,0.2519,0.254,0.2491,0.249,0.2563,0.2567,0.2571,0.2589,0,0,0,0,0,0,0.2467,0.2471,0.2475,0.2478,0.248,0.2495,0.2496,0.2497,0.2522,0.2525,0.252,0.2519,0.2498,0.2521,0.2518,0.2537,0.2489,0.2559,0.2565,0.257,0.2585,0.2594,0.2601,0,0,0,0,0,0.2466,0.2463,0.2475,0.2478,0.2487,0.2496,0.2496,0.2504,0.2523,0.2531,0.2546,0.252,0.2553,0.2521,0.2517,0.2537,0.2557,0.2563,0.2569,0.2582,0.2592,0.2601,0,0,0,0,0,0,0.2445,0.2465,0.2478,0.2481,0.2497,0.25,0.2507,0.2522,0.2538,0.2549,0.2538,0.2537,0.2565,0.2563,0.2529,0.2585,0.2558,0.2564,0.2569,0.2579,0.2586,0.2585,0.2488,0,0,0,0,0,0.2445,0.2456,0.2473,0.2479,0.2492,0.2509,0.2516,0.2525,0.254,0.255,0.2553,0.2569,0.2582,0.2592,0.2592,0.2613,0.261,0.2635,0.2643,0.2649,0.2652,0.2671,0.2679,0.2594,0.2594,0.2593,0,0,0.2434,0.2452,0.2454,0.2477,0.2493,0.2509,0.2516,0.2535,0.2554,0.2544,0.2576,0.2585,0.2595,0.2619,0.2634,0.2622,0.2677,0.2658,0.2662,0.2661,0.2678,0.2686,0.2692,0.2598,0.2597,0.2596,0,0,0.2424,0.2445,0.2454,0.2475,0.2506,0.2516,0.2533,0.2556,0.2575,0.2608,0.2611,0.2648,0.2663,0.2675,0.2685,0.2745,0.2712,0.2752,0.2787,0.2805,0.2811,0.2816,0.2828,0.2833,0.2762,0.2762,0.2762,0,0.2408,0.2432,0.2456,0.2479,0.2497,0.2529,0.2547,0.2567,0.2595,0.2616,0.263,0.2681,0.2695,0.2723,0.2756,0.2759,0.2756,0.2737,0.281,0.2815,0.282,0.2831,0.2837,0.2763,0.2763,0.2763,0.2763,0,0.2417,0.2436,0.2448,0.2492,0.2511,0.2532,0.2568,0.259,0.263,0.2659,0.2708,0.273,0.2766,0.2784,0.279,0.2834,0.2817,0.2805,0.2771,0.2828,0.2838,0.2844,0.2766,0.2765,0.2765,0.2764,0,0,0.2369,0.2439,0.2441,0.2462,0.2522,0.253,0.2573,0.2615,0.2654,0.2694,0.2741,0.2792,0.2817,0.2833,0.284,0.2868,0.2916,0.2858,0.2858,0.2844,0.2945,0.2862,0.2861,0.2901,0.2903,0.2904,0.2938,0,0.2368,0.2404,0.2444,0.2473,0.2495,0.2539,0.2578,0.2622,0.2679,0.2731,0.2773,0.2825,0.2832,0.2858,0.2886,0.2912,0.2932,0.2907,0.2915,0.2916,0.2813,0.2865,0.2669,0.2677,0.2944,0.2945,0.2945,0,0.2364,0.2389,0.242,0.2471,0.2487,0.2512,0.2576,0.2612,0.2697,0.2748,0.2804,0.2845,0.2905,0.2901,0.2959,0.2937,0.2949,0.296,0.2961,0.2878,0.2844,0.2666,0.2677,0.2955,0.2954,0.2954,0.2953,0,0.2315,0.2366,0.2389,0.2409,0.2476,0.2497,0.2533,0.2619,0.2667,0.2758,0.2811,0.2877,0.2921,0.2947,0.2989,0.2981,0.3032,0.3024,0.295,0.2944,0.2778,0.2755,0.305,0.305,0.305,0.305,0.305,0,0.2292,0.23,0.2369,0.2377,0.2412,0.2467,0.2527,0.2575,0.2668,0.2717,0.2813,0.2853,0.2936,0.2976,0.2996,0.2991,0.304,0.2962,0.295,0.2782,0.2759,0.3,0.2993,0.3051,0.3051,0.3051,0.3051,0,0.2224,0.2273,0.2299,0.2368,0.2391,0.2412,0.2513,0.2546,0.2649,0.2709,0.2738,0.2858,0.2911,0.2965,0.3019,0.2996,0.3003,0.2977,0.2772,0.2735,0.2903,0.2898,0.2918,0.2915,0.2913,0.2911,0.291,0,0.2195,0.2208,0.2281,0.2293,0.2323,0.2376,0.2408,0.2521,0.2554,0.2688,0.2689,0.2795,0.2826,0.2887,0.2882,0.2889,0.2945,0.2689,0.2643,0.2905,0.2891,0.289,0.2888,0.244,0.2434,0.243,0.2427,0,0.2136,0.2172,0.2188,0.2218,0.2248,0.2283,0.233,0.2361,0.2464,0.2529,0.2577,0.2625,0.2705,0.2632,0.2656,0.2635,0.2679,0.2601,0.2926,0.2499,0.2455,0.2442,0.2455,0.2388,0.2392,0.2395,0.2397,0.2399,0.2095,0.2085,0.2109,0.2118,0.2157,0.2144,0.2138,0.2185,0.2222,0.2267,0.2382,0.2389,0.2443,0.2388,0.2319,0.2288,0.2475,0.2375,0.2388,0.2405,0.234,0.2293,0.2184,0.2187,0.2189,0.2191,0.2193,0,0.2013,0.1995,0.1997,0.1996,0.1984,0.2042,0.2044,0.2008,0.1993,0.2073,0.2115,0.1975,0.1949,0.2001,0.1902,0.191,0.1897,0.1831,0.1796,0.1837,0.1873,0.1779,0.1475,0.1472,0.147,0.1467,0,0,0.1967,0.1903,0.1877,0.1807,0.1823,0.1758,0.1738,0.1708,0.1729,0.1702,0.171,0.1874,0.1951,0.1678,0.1659,0.1542,0.1673,0.149,0.2075,0.2076,0.2108,0.2207,0.2111,0,0,0,0,0]},{"header":{"parameterUnit":"m.s-1","parameterCategory":2,"la1":30.2991,"la2":30.254,"lo1":-89.0895,"lo2":-89.0444,"dy":0.0017,"dx":0.0017,"nx":28,"ny":28,"refTime":"2025-11-10T03:00:00:Z","depth":"2","parameterNumber":3,"parameterNumberName":"V-component_of_CURRENTS"},"data":[0,0,0,0,0,0,0,0,0,0,0,0,0,0,0,0,0,0,0,0,0,0,0,0,0,0,0,0,0,0,0,0,0,0,0,0,0,0,0,0,0,0,0,0,0,0,0,0,0,0,0,0,0,0,0,0,0,0,0.0224,0.0224,0,0.0182,0.0182,0.0181,0.0135,0.0134,0.0134,0.0133,0.0077,0.0076,0.0075,0,0,0,0,0,0,0,0,0,0,0,0,0,0.0226,0.0227,0.0224,0.0224,0.0223,0.0182,0.0182,0.0181,0.0135,0.0134,0.0134,0.0133,0.0077,0.0076,0.0075,0,0,0,0,0,0,0,0,0,0,0,0,0,0.0208,0.0227,0.0224,0.0196,0.0193,0.0182,0.0182,0.0181,0.0135,0.0134,0.0134,0.0133,0.0077,0.0076,0.0074,0.0082,0,0,0.007,0.0069,0,0,0,0,0,0,0,0,0.0209,0.0208,0.0201,0.0198,0.0195,0.0164,0.0162,0.0148,0.0135,0.0156,0.0133,0.0132,0.0106,0.0102,0.0095,0.008,0.0077,0.007,0.0069,0.0068,0.0068,0,0,0,0,0,0,0,0.0211,0.0209,0.0206,0.02,0.0197,0.0173,0.017,0.0158,0.0135,0.0154,0.0151,0.0149,0.0104,0.0096,0.0093,0.0076,0.007,0.0069,0.0068,0.0067,0.0028,0.0028,0,0,0,0,0,0,0.0221,0.0211,0.0208,0.0205,0.0201,0.0174,0.017,0.0174,0.0135,0.0129,0.0149,0.0147,0.0099,0.0095,0.0091,0.0085,0.0068,0.0067,0.0066,0.0028,0.0028,0.0027,0,0,0,0,0,0,0.0221,0.0221,0.0209,0.0207,0.0204,0.0175,0.0179,0.0174,0.0157,0.0132,0.0125,0.0138,0.0098,0.0093,0.0067,0.0083,0.0066,0.0065,0.0028,0.0028,0.0028,0.0082,0,0,0,0,0,0,0.0222,0.0222,0.0224,0.0208,0.0205,0.0208,0.018,0.0173,0.0157,0.0153,0.012,0.0114,0.0097,0.0069,0.0065,0.008,0.0064,0.0028,0.0028,0.0028,0.008,0.0083,0.0086,0,0,0,0,0,0.0222,0.0233,0.0225,0.0224,0.0211,0.0209,0.0205,0.0179,0.0158,0.0159,0.0123,0.0115,0.0065,0.0068,0.0063,0.0079,0.0028,0.0028,0.0028,0.0079,0.0083,0.0086,0,0,0,0,0,0,0.0234,0.0229,0.022,0.0228,0.0221,0.0201,0.0199,0.0179,0.0152,0.0142,0.0111,0.0103,0.0089,0.007,0.0074,0.0063,0.0046,0.0045,0.0087,0.009,0.0093,0.0114,0.0063,0,0,0,0,0,0.024,0.0247,0.0237,0.0243,0.0242,0.0219,0.0211,0.0196,0.0173,0.0159,0.0136,0.0107,0.0086,0.0076,0.0058,0.0052,0.0029,0.0057,0.006,0.0063,0.0076,0.0041,0.0042,0.0026,0.0026,0.0026,0,0,0.0248,0.0244,0.0248,0.0246,0.0237,0.0247,0.0212,0.0207,0.0209,0.0159,0.015,0.0118,0.0085,0.0077,0.007,0.0063,0.0055,0.0063,0.0066,0.0077,0.0041,0.0042,0.0044,0.0026,0.0026,0.0026,0,0,0.0273,0.0264,0.0281,0.0279,0.0271,0.0261,0.026,0.0242,0.0227,0.0214,0.0176,0.0149,0.0123,0.0103,0.0089,0.0096,0.0071,0.009,0.0127,0.0092,0.0094,0.0095,0.0068,0.0066,0.0093,0.0093,0.0093,0,0.0282,0.03,0.0284,0.03,0.0304,0.0271,0.0291,0.0277,0.025,0.0242,0.0218,0.0167,0.0138,0.0125,0.0126,0.0106,0.0082,0.0119,0.0098,0.0098,0.0098,0.007,0.0067,0.0096,0.0095,0.0095,0.0095,0,0.0321,0.0334,0.0344,0.0356,0.0358,0.0368,0.0354,0.0346,0.032,0.0304,0.0279,0.023,0.0202,0.0186,0.0159,0.0149,0.0129,0.0106,0.0094,0.0104,0.0073,0.0069,0.0099,0.0098,0.0098,0.0097,0,0,0.0349,0.0369,0.0372,0.039,0.0388,0.0398,0.0402,0.0401,0.0407,0.0366,0.0366,0.0317,0.0285,0.0265,0.0223,0.0191,0.0166,0.0155,0.0152,0.0138,0.0094,0.0065,0.0058,0.0137,0.0136,0.0136,0.0073,0,0.0385,0.0429,0.0426,0.0469,0.0492,0.047,0.0483,0.0474,0.0454,0.0446,0.0386,0.0372,0.0317,0.0303,0.0262,0.0193,0.0159,0.0186,0.0078,0.0076,0.0057,0.0053,0.0087,0.0032,0.0069,0.0068,0.0068,0,0.0424,0.0449,0.0497,0.053,0.0539,0.0557,0.0571,0.058,0.0557,0.0539,0.0504,0.0458,0.0409,0.0358,0.0248,0.0267,0.019,0.013,0.0126,0.0081,0.004,0.0026,0.0023,0.0061,0.0061,0.0062,0.0062,0,0.0456,0.05,0.054,0.0551,0.0581,0.0596,0.0612,0.0607,0.0629,0.0602,0.0607,0.0531,0.0502,0.0394,0.0261,0.0257,0.0133,0.0111,0.0012,0.0009,0.0009,0.0006,0.0034,0.0034,0.0034,0.0034,0.0035,0,0.0496,0.053,0.0559,0.0584,0.0637,0.0643,0.0696,0.0691,0.0705,0.0733,0.0663,0.0658,0.0509,0.0416,0.0287,0.0137,0.0149,0.0023,-0.0009,0.0027,0.0027,0.0029,0.0029,0.0032,0.0033,0.0033,0.0033,0,0.0528,0.0544,0.0596,0.0636,0.0655,0.0696,0.0763,0.0801,0.0802,0.0834,0.083,0.0761,0.064,0.0477,0.0302,0.0182,0.0033,-0.0027,0.0027,0.0003,-0.0071,-0.0067,-0.0127,-0.0128,-0.013,-0.0131,-0.0132,0,0.055,0.0579,0.0636,0.0673,0.0696,0.0761,0.0807,0.0841,0.0883,0.0891,0.0906,0.0816,0.0749,0.0486,0.0262,0.0037,0.0008,-0.0081,-0.0085,-0.0062,-0.0088,-0.0082,-0.0077,-0.0065,-0.0065,-0.0065,-0.0065,0,0.0594,0.0606,0.0647,0.0719,0.0776,0.0851,0.0916,0.0965,0.0996,0.1023,0.1022,0.0975,0.0741,0.0523,0.0222,0.0075,-0.0043,-0.0094,-0.0088,-0.0031,-0.001,-0.0033,-0.0028,-0.0067,-0.0067,-0.0067,-0.0067,-0.0067,0.0619,0.0652,0.0697,0.0768,0.0838,0.0916,0.098,0.1043,0.1112,0.1147,0.1103,0.1046,0.081,0.0437,0.0179,-0.0073,-0.0061,-0.0143,-0.014,-0.0137,-0.012,-0.0103,-0.0174,-0.0175,-0.0175,-0.0175,-0.0176,0,0.0644,0.0681,0.0745,0.0825,0.0904,0.0938,0.1037,0.1092,0.1165,0.1201,0.1204,0.0979,0.0744,0.0476,0.0104,-0.0128,-0.0128,-0.0195,-0.0141,-0.0137,-0.0134,-0.0115,-0.017,-0.017,-0.0171,-0.0172,0,0,0.0657,0.0709,0.0738,0.0858,0.0925,0.102,0.1078,0.1152,0.1201,0.1227,0.1211,0.1162,0.0831,0.0562,0.0252,0.0041,0.0008,0.0004,0.0026,0.013,0.0136,-0.0078,-0.0041,0,0,0,0,0]}],[{"header":{"parameterUnit":"m.s-1","parameterCategory":2,"la1":30.2991,"la2":30.254,"lo1":-89.0895,"lo2":-89.0444,"dy":0.0017,"dx":0.0017,"nx":28,"ny":28,"refTime":"2025-11-10T03:00:00:Z","depth":"4","parameterNumber":2,"parameterNumberName":"U-component_of_CURRENTS"},"data":[0,0,0,0,0,0,0,0,0,0,0,0,0,0,0,0,0,0,0,0,0,0,0,0,0,0,0,0,0,0,0,0,0,0,0,0,0,0,0,0,0,0,0,0,0,0,0,0,0,0,0,0,0,0,0,0,0,0,0.1109,0.111,0,0.1183,0.1183,0.1184,0.126,0.1261,0.1262,0.1263,0.1391,0.1393,0.1396,0,0,0,0,0,0,0,0,0,0,0,0,0,0.1067,0.1067,0.1109,0.111,0.1111,0.1182,0.1183,0.1185,0.126,0.1261,0.1263,0.1264,0.139,0.1393,0.1396,0,0,0,0,0,0,0,0,0,0,0,0,0,0.1108,0.1067,0.1109,0.1157,0.1162,0.1182,0.1183,0.1185,0.126,0.1261,0.1263,0.1264,0.1389,0.1393,0.1396,0.1389,0,0,0.1408,0.1409,0,0,0,0,0,0,0,0,0.1105,0.1109,0.1149,0.1154,0.1159,0.1213,0.1215,0.1256,0.126,0.1223,0.1263,0.1265,0.1335,0.1343,0.1354,0.1395,0.1401,0.1408,0.141,0.1412,0.1413,0,0,0,0,0,0,0,0.1102,0.1107,0.1139,0.115,0.1156,0.1186,0.1193,0.1223,0.1271,0.1227,0.1232,0.1239,0.1338,0.135,0.1357,0.1403,0.1408,0.1411,0.1413,0.1415,0.1577,0.1579,0,0,0,0,0,0,0.1089,0.1104,0.1137,0.1141,0.1135,0.1185,0.1193,0.1195,0.127,0.1282,0.1237,0.1242,0.1343,0.1353,0.1362,0.1473,0.1412,0.1415,0.1417,0.1575,0.1577,0.158,0,0,0,0,0,0,0.1087,0.109,0.1134,0.1124,0.1132,0.1184,0.1185,0.1196,0.1245,0.1278,0.1291,0.1281,0.1344,0.1357,0.1439,0.1474,0.1417,0.142,0.1572,0.1576,0.1578,0.1621,0,0,0,0,0,0,0.1086,0.1089,0.1109,0.1123,0.1132,0.1174,0.1184,0.1196,0.1244,0.1252,0.1318,0.133,0.1347,0.1433,0.1442,0.1478,0.1423,0.157,0.1574,0.1578,0.1617,0.1625,0.1633,0,0,0,0,0,0.1084,0.1095,0.1109,0.1115,0.1149,0.1175,0.1183,0.1225,0.1245,0.1274,0.1331,0.133,0.1464,0.1438,0.1448,0.1486,0.1568,0.1573,0.1577,0.1614,0.1624,0.1632,0,0,0,0,0,0,0.1087,0.1104,0.112,0.1138,0.1169,0.1188,0.122,0.1242,0.1306,0.1329,0.1359,0.1374,0.1458,0.1468,0.1439,0.1546,0.1514,0.1521,0.1539,0.1549,0.1556,0.1555,0.1426,0,0,0,0,0,0.1093,0.1113,0.1131,0.1153,0.1167,0.12,0.1224,0.1252,0.1296,0.1327,0.1365,0.1419,0.1476,0.1512,0.1555,0.1612,0.1609,0.1644,0.1651,0.1658,0.1666,0.1696,0.1707,0.1595,0.1595,0.1595,0,0,0.1095,0.1114,0.1123,0.1157,0.1183,0.1212,0.122,0.1264,0.1306,0.1329,0.1408,0.1449,0.15,0.1571,0.1608,0.159,0.1687,0.1664,0.1669,0.1673,0.1702,0.1713,0.1722,0.1598,0.1598,0.1597,0,0,0.1109,0.1131,0.1154,0.1181,0.1229,0.1247,0.1266,0.1304,0.1346,0.1419,0.1451,0.1519,0.1593,0.1635,0.1667,0.1743,0.1727,0.1757,0.1796,0.1826,0.1835,0.1843,0.1839,0.1847,0.176,0.176,0.176,0,0.1122,0.1144,0.1167,0.12,0.1225,0.1265,0.1296,0.134,0.1405,0.1445,0.1457,0.1586,0.1624,0.1716,0.1748,0.176,0.1762,0.1754,0.1834,0.1842,0.1849,0.1844,0.1851,0.1762,0.1762,0.1762,0.1762,0,0.114,0.1176,0.1192,0.1244,0.1277,0.1312,0.1361,0.1415,0.1466,0.1506,0.1611,0.1667,0.1744,0.1765,0.1787,0.1865,0.1844,0.1838,0.1804,0.1862,0.1854,0.1861,0.1766,0.1765,0.1764,0.1764,0,0,0.1122,0.1192,0.1203,0.1238,0.1304,0.1331,0.1407,0.1479,0.1543,0.1613,0.1691,0.1791,0.182,0.1859,0.1888,0.1917,0.1968,0.1906,0.1906,0.189,0.2015,0.1893,0.1888,0.1976,0.1978,0.1979,0.1983,0,0.1137,0.1197,0.123,0.1297,0.1327,0.1387,0.1452,0.1531,0.1604,0.1688,0.1761,0.185,0.1856,0.1907,0.1941,0.197,0.1991,0.1966,0.1972,0.1972,0.1846,0.1894,0.1985,0.1988,0.1989,0.199,0.1991,0,0.1139,0.1184,0.1245,0.1329,0.135,0.1401,0.1512,0.1579,0.17,0.1761,0.1853,0.1909,0.1994,0.1981,0.2049,0.2034,0.2035,0.2037,0.2037,0.1914,0.1863,0.1923,0.2003,0.2002,0.2001,0.2001,0.2,0,0.1106,0.1192,0.1245,0.1272,0.1372,0.1427,0.149,0.1607,0.1677,0.1813,0.1874,0.1974,0.2037,0.2064,0.2088,0.2078,0.2131,0.2111,0.1994,0.1984,0.2072,0.2064,0.2147,0.2147,0.2147,0.2147,0.2147,0,0.1091,0.1138,0.1243,0.127,0.1351,0.1424,0.1525,0.1607,0.1728,0.1803,0.1913,0.1975,0.2065,0.2108,0.2107,0.2069,0.2148,0.2006,0.1985,0.2089,0.2083,0.2076,0.2067,0.2147,0.2147,0.2147,0.2147,0,0.1042,0.1111,0.1175,0.129,0.1337,0.1396,0.1533,0.1595,0.1721,0.1822,0.1869,0.1996,0.2044,0.2097,0.2139,0.208,0.2062,0.2026,0.2125,0.2109,0.1886,0.188,0.1887,0.1883,0.188,0.1877,0.1874,0,0.1018,0.1048,0.1176,0.1218,0.1276,0.1379,0.1444,0.1583,0.1642,0.181,0.1837,0.1946,0.201,0.1963,0.2027,0.2009,0.1989,0.1959,0.193,0.1884,0.1864,0.1863,0.1862,0.1869,0.1868,0.1867,0.1866,0,0.0967,0.1022,0.1072,0.116,0.1236,0.1312,0.1412,0.145,0.1597,0.1723,0.177,0.1806,0.1853,0.188,0.1885,0.187,0.1969,0.1921,0.1928,0.1901,0.1862,0.1845,0.1848,0.1854,0.1855,0.1857,0.1857,0,0.0928,0.0941,0.1014,0.1082,0.117,0.1215,0.1284,0.135,0.1431,0.161,0.1617,0.1725,0.1831,0.1807,0.1809,0.1792,0.1762,0.1698,0.1716,0.173,0.1679,0.1606,0.1505,0,0,0,0,0,0.0886,0.0886,0.093,0.0998,0.1077,0.1133,0.1247,0.1314,0.1461,0.1451,0.1534,0.157,0.1596,0.1651,0.16,0.1732,0.1763,0.1664,0.1698,0.1786,0.18,0.1756,0,0,0,0,0,0,0.0855,0.0886,0.0894,0.0916,0.0946,0.1024,0.1091,0.1187,0.1193,0.1342,0.1362,0.1472,0.1516,0.1604,0.1568,0.1583,0.1571,0.1734,0.173,0.1779,0.1791,0.1802,0.1761,0,0,0,0,0]},{"header":{"parameterUnit":"m.s-1","parameterCategory":2,"la1":30.2991,"la2":30.254,"lo1":-89.0895,"lo2":-89.0444,"dy":0.0017,"dx":0.0017,"nx":28,"ny":28,"refTime":"2025-11-10T03:00:00:Z","depth":"4","parameterNumber":3,"parameterNumberName":"V-component_of_CURRENTS"},"data":[0,0,0,0,0,0,0,0,0,0,0,0,0,0,0,0,0,0,0,0,0,0,0,0,0,0,0,0,0,0,0,0,0,0,0,0,0,0,0,0,0,0,0,0,0,0,0,0,0,0,0,0,0,0,0,0,0,0,0.0353,0.0353,0,0.032,0.032,0.0319,0.0296,0.0296,0.0296,0.0296,0.0236,0.0234,0.0233,0,0,0,0,0,0,0,0,0,0,0,0,0,0.0349,0.0349,0.0353,0.0353,0.0353,0.032,0.0319,0.0319,0.0296,0.0296,0.0296,0.0296,0.0236,0.0235,0.0233,0,0,0,0,0,0,0,0,0,0,0,0,0,0.0336,0.035,0.0353,0.0338,0.0337,0.032,0.0319,0.0319,0.0296,0.0296,0.0296,0.0296,0.0237,0.0235,0.0232,0.0221,0,0,0.0225,0.0224,0,0,0,0,0,0,0,0,0.0337,0.0336,0.0341,0.0339,0.0337,0.0313,0.0296,0.0285,0.0296,0.031,0.0296,0.0296,0.026,0.0256,0.0249,0.0218,0.0215,0.0225,0.0224,0.0223,0.0222,0,0,0,0,0,0,0,0.0338,0.0337,0.0339,0.034,0.0338,0.0316,0.0315,0.0294,0.0285,0.0309,0.0307,0.0306,0.0259,0.0251,0.0247,0.0214,0.0225,0.0223,0.0222,0.0221,0.0165,0.0165,0,0,0,0,0,0,0.0347,0.0338,0.034,0.0338,0.0338,0.0317,0.0315,0.032,0.0285,0.0281,0.0306,0.0305,0.0255,0.025,0.0245,0.0226,0.0223,0.0221,0.0219,0.0166,0.0165,0.0165,0,0,0,0,0,0,0.0347,0.0348,0.0341,0.0338,0.0336,0.0318,0.0323,0.0319,0.0314,0.0284,0.0278,0.0305,0.0254,0.0248,0.0223,0.0223,0.022,0.0218,0.0166,0.0166,0.0165,0.0189,0,0,0,0,0,0,0.0347,0.0348,0.0353,0.0339,0.0336,0.0334,0.0323,0.0319,0.0314,0.0312,0.0281,0.0275,0.0254,0.0227,0.0221,0.022,0.0216,0.0166,0.0166,0.0165,0.0188,0.019,0.0191,0,0,0,0,0,0.0347,0.0353,0.0353,0.0353,0.0344,0.0334,0.0331,0.0316,0.0314,0.0312,0.0288,0.0276,0.0222,0.0225,0.0218,0.0216,0.0166,0.0166,0.0165,0.0188,0.0189,0.0191,0,0,0,0,0,0,0.0348,0.0351,0.0351,0.0356,0.0348,0.0331,0.0328,0.0321,0.0301,0.03,0.0272,0.0264,0.0242,0.0227,0.0231,0.02,0.0193,0.0192,0.0212,0.0214,0.0215,0.0214,0.0214,0,0,0,0,0,0.0353,0.0363,0.0356,0.0361,0.036,0.0346,0.0341,0.0333,0.0315,0.0307,0.0287,0.0262,0.0236,0.0223,0.02,0.0183,0.015,0.0178,0.0179,0.018,0.0175,0.0118,0.0113,0.0165,0.0165,0.0165,0,0,0.0356,0.0358,0.0364,0.0362,0.0356,0.0354,0.0342,0.0338,0.0332,0.0303,0.0289,0.0265,0.0232,0.021,0.02,0.0198,0.0151,0.018,0.0181,0.0175,0.0117,0.0112,0.0107,0.0164,0.0164,0.0164,0,0,0.0363,0.0369,0.0377,0.0374,0.0369,0.0361,0.0363,0.0351,0.0341,0.0326,0.0301,0.0273,0.0246,0.0214,0.0196,0.0189,0.0158,0.0191,0.0195,0.0141,0.0136,0.0131,0.0092,0.0084,0.0192,0.0192,0.0192,0,0.0362,0.0374,0.0376,0.0378,0.0375,0.0368,0.0368,0.0358,0.0338,0.0325,0.0326,0.0267,0.0243,0.0199,0.02,0.019,0.0161,0.0194,0.0141,0.0136,0.0131,0.0092,0.0082,0.0193,0.0193,0.0193,0.0193,0,0.0372,0.038,0.0383,0.0388,0.0385,0.0385,0.0375,0.0369,0.0362,0.0346,0.031,0.0273,0.0237,0.0228,0.0213,0.0166,0.0159,0.0149,0.0138,0.0127,0.0087,0.0076,0.0195,0.0195,0.0194,0.0194,0,0,0.037,0.0387,0.0388,0.0393,0.0391,0.039,0.0383,0.0367,0.0358,0.0336,0.0312,0.0267,0.0249,0.0226,0.02,0.0156,0.01,0.0143,0.014,0.0105,-0.0012,0.0015,0.0006,0.008,0.0079,0.0077,-0.0022,0,0.0373,0.0385,0.0391,0.0398,0.0402,0.0396,0.039,0.0376,0.036,0.0338,0.0292,0.0264,0.0248,0.0234,0.0184,0.0122,0.0072,0.0128,0.0003,-0.0001,0.0024,-0.0005,0.0071,-0.003,-0.0032,-0.0034,-0.0035,0,0.0375,0.0385,0.0397,0.0406,0.0407,0.0411,0.04,0.0397,0.0362,0.0348,0.0308,0.0277,0.0214,0.0205,0.0079,0.0118,0.0054,0.0004,-0.0002,0.0006,0.0007,-0.002,-0.0055,-0.0053,-0.0052,-0.005,-0.0049,0,0.0371,0.0386,0.0398,0.0401,0.041,0.0413,0.0419,0.0398,0.04,0.0358,0.035,0.0267,0.0237,0.0137,0.005,0.0058,-0.0087,-0.0093,-0.0135,-0.0134,-0.0138,-0.0132,-0.0197,-0.0197,-0.0196,-0.0196,-0.0196,0,0.0366,0.0376,0.0402,0.0408,0.0426,0.0428,0.044,0.0429,0.0418,0.0419,0.0363,0.0341,0.0219,0.0133,0.004,-0.0072,-0.01,-0.0145,-0.0164,-0.0124,-0.0115,-0.0146,-0.0138,-0.02,-0.0199,-0.0198,-0.0198,0,0.0358,0.0374,0.0392,0.0414,0.0427,0.0442,0.0478,0.0483,0.047,0.0469,0.0461,0.0387,0.0281,0.0157,-0.0003,-0.0071,-0.019,-0.0226,-0.0165,-0.0178,-0.02,-0.019,-0.0293,-0.0293,-0.0293,-0.0293,-0.0293,0,0.0353,0.0364,0.0404,0.0427,0.0443,0.0475,0.05,0.0509,0.0524,0.0501,0.05,0.0409,0.0347,0.0145,0.0009,-0.0179,-0.0198,-0.0263,-0.0244,-0.0205,-0.0213,-0.0204,-0.0194,-0.0293,-0.0293,-0.0293,-0.0293,0,0.0346,0.0365,0.0384,0.0438,0.0474,0.0515,0.0554,0.0572,0.0582,0.0569,0.0536,0.0437,0.0319,0.0163,0.002,-0.0114,-0.0224,-0.0264,-0.0265,-0.0247,-0.0206,-0.0212,-0.0203,-0.0293,-0.0293,-0.0293,-0.0293,0,0.0343,0.0357,0.0395,0.0442,0.0494,0.0544,0.0564,0.0589,0.0607,0.059,0.0578,0.0453,0.038,0.0195,0.0061,-0.0064,-0.0097,-0.0137,-0.0145,-0.0147,-0.0069,0.0007,-0.0041,0,0,0,0,0,0.0338,0.036,0.04,0.0453,0.051,0.0548,0.0596,0.0612,0.0628,0.0616,0.0603,0.0498,0.0314,0.023,0.0109,0.0047,-0.0131,-0.01,-0.0184,-0.0293,-0.0293,-0.0223,0,0,0,0,0,0,0.0332,0.0368,0.0393,0.0464,0.0508,0.0572,0.061,0.0619,0.0617,0.0613,0.0519,0.0473,0.0291,0.0386,0.0109,0.0069,0.0001,-0.0188,-0.0191,-0.0293,-0.0293,-0.0293,-0.0221,0,0,0,0,0]}]]